Regional Weather Roundup
Issued by NWS

Home | Current Version | Previous Version | Text Only | Print | Product List | Glossary On
Versions: 1 2 3 4 5 6 7 8 9 10 11 12 13 14 15 16 17 18 19 20 21 22 23 24 25 26 27 28 29 30 31 32 33 34 35 36 37 38 39 40 41 42 43 44 45 46 47 48 49 50
000
ASUS45 KABQ 280801
RWRNM
WEATHER ROUNDUP FOR NEW MEXICO
NATIONAL WEATHER SERVICE ALBUQUERQUE NM
200 AM MDT TUE APR 28 2015

NOTE: "FAIR" MEANS FEW OR NO CLOUDS BELOW 12,000 FEET AGL WITH NO
       SIGNIFICANT WEATHER OR OBSTRUCTIONS TO VISION.

      THIS PRODUCT IS RELEASED AS TWO VERSIONS.  ONE VERSION NEAR
      THE TOP OF THE HOUR CONTAINING PRELIMINARY DATA FROM ALBUQUERQUE
      AND OTHER STATIONS.  A FINAL VERSION WITH ADDITIONAL DATA IS
      ISSUED ABOUT 10 MINUTES AFTER THE HOUR.

NMZ501-503-504-510>518-280900-
NORTHWEST PLATEAU/NORTHCENTRAL MOUNTAINS

CITY           SKY/WX    TMP DP  RH WIND       PRES   REMARKS
FARMINGTON     CLOUDY    49  44  83 N3        30.20R
SANTA FE       PTCLDY    39  31  72 CALM      30.26S
TAOS           PTCLDY    32  19  59 N5        30.29S WCI  27
ANGEL FIRE     CLOUDY    32  26  78 N12       30.33S WCI  23

$$
NMZ402-403-502-505>509-280900-
WESTCENTRAL MOUNTAINS/SOUTHWEST MOUNTAINS

CITY           SKY/WX    TMP DP  RH WIND       PRES   REMARKS
GALLUP         MOCLDY    44  37  76 NE8       30.23R
GRANTS         MOCLDY    41  37  83 SE12      30.26F
SILVER CITY      N/A     41  36  81 NW5       30.22R

$$
NMZ407-409-411-412-280900-
SOUTHERN DESERTS

CITY           SKY/WX    TMP DP  RH WIND       PRES   REMARKS
DEMING         PTCLDY    49  33  54 E13       30.20R
HOLLOMAN AFB   MOCLDY    47  30  51 N9        30.18S
ALAMOGORDO     MOCLDY    52  28  40 N15       30.18F
T OR C         MOCLDY    48  33  56 N9        30.24S

$$
NMZ519>523-280900-
CENTRAL VALLEYS/CENTRAL HIGHLANDS

CITY           SKY/WX    TMP DP  RH WIND       PRES   REMARKS
ALBUQUERQUE    PTCLDY    46  33  60 SE9       30.25S
DOUBLE EAGLE   MOCLDY    41  39  92 SW9       30.26F
MORIARTY ARPT  CLOUDY    43  29  59 N7        30.28F
CLINES CORNERS MOCLDY    38  30  73 NE21G28   30.25R WCI  28
BELEN          DRIZZLE   45  40  84 SW9       30.25F
SOCORRO        NOT AVBL

$$
NMZ524>526-539-540-280900-
SOUTHCENTRAL MOUNTAINS

CITY           SKY/WX    TMP DP  RH WIND       PRES   REMARKS
RUIDOSO        NOT AVBL

$$
NMZ527>531-280900-
NORTHEAST HIGHLANDS/NORTHEAST PLAINS

CITY           SKY/WX    TMP DP  RH WIND       PRES   REMARKS
LAS VEGAS      CLOUDY    38  31  76 NE15      30.28F WCI  29
RATON          CLOUDY    40  29  64 N8        30.28F WCI  34
CLAYTON        PTCLDY    41  33  73 N13       30.23F

$$
NMZ532>537-280900-
EASTCENTRAL PLAINS

CITY           SKY/WX    TMP DP  RH WIND       PRES   REMARKS
TUCUMCARI      CLOUDY    43  39  86 CALM      30.23F
CANNON AFB     PTCLDY    38  36  91 N14       30.19S WCI  30
CLOVIS AIRPORT CLOUDY    39  36  87 N18G24    30.20F WCI  30

$$
NMZ028-029-538-280900-
SOUTHEAST PLAINS

CITY           SKY/WX    TMP DP  RH WIND       PRES   REMARKS
ROSWELL        MOCLDY    45  35  68 NW7       30.23F
ARTESIA          N/A     43  36  75 NW12      30.24S
CARLSBAD       MOCLDY    48  33  56 NW18      30.20F
HOBBS          CLOUDY    43  37  81 N21G28    30.17S


$$


USA.gov is the U.S. government's official web portal to all federal, state and local government web resources and services.